sat.trackr.live / text

‹ back to catalog

FLOCK 4G-26

NORAD 62633 · 2025-009AA

PAYLOAD ACTIVE UNKNOWN

§ Identity

Operator
Country
US
Launch date
2025-01-14
Launch site
AFWTR
Launch vehicle
Mass (kg)
RCS (m²)

Purposes: earth_obs

External: N2YO · Heavens-Above · Gunter

§ Orbital elements

Epoch: 2026-05-25T03:45:01.625184Z

Period
94.19 min
Inclination
97.4015°
Eccentricity
0.0003935
Mean motion
15.28867786 rev/d
Perigee alt
476.5 km
Apogee alt
481.9 km
Semi-major
6,857.3 km
B*
3.6476e-4
RAAN
227.2605°
Arg perigee
50.2670°
Mean anomaly
309.8916°
Rev number
7,539

§ Raw data

FLOCK 4G-261 62633U 25009AA  26145.15626881  .00010162  00000+0  36476-3 0  99992 62633  97.4015 227.2605 0003935  50.2670 309.8916 15.28867786 75390

JSON: /api/v1/satellites/62633 · /tle

For live sub-satellite position, see the globe view (requires WebGL).

§ Visibility from observer

Set your observer location to see the next 7 days of passes ≥ 10°. The values pass through the URL so the page stays shareable.

No JS? Fill the form by hand. The geolocation button needs JavaScript.